Regional Weather Roundup
Issued by NWS

Home | Current Version | Previous Version | Text Only | Print | Product List | Glossary On
Versions: 1 2 3 4 5 6 7 8 9 10 11 12 13 14 15 16 17 18 19 20 21 22 23 24 25 26 27 28 29 30 31 32 33 34 35 36 37 38 39 40 41 42 43 44 45 46 47 48 49 50
767
ASUS44 KFWD 240101
RWRTX
NORTH TEXAS HOURLY WEATHER ROUNDUP
NATIONAL WEATHER SERVICE FORT WORTH TX
800 PM CDT MON OCT 23 2017

NOTE: "FAIR" INDICATES FEW OR NO CLOUDS BELOW 12,000 FEET WITH NO
SIGNIFICANT WEATHER AND/OR OBSTRUCTIONS TO VISIBILITY.

TXZ118-119-240200-
DALLAS/FORT WORTH METROPLEX

CITY           SKY/WX    TMP DP  RH WIND       PRES   REMARKS
DFW AIRPORT    PTCLDY    74  49  41 N14       30.09R
DALLAS LOVE    PTCLDY    75  48  38 N13       30.09R
FTW MEACHAM    CLEAR     73  50  44 N10       30.11R
DAL-EXECUTIVE  CLEAR     72  49  44 NW10      30.09R
FTW-ALLIANCE   PTCLDY    70  49  47 N15G21    30.12R
ARLINGTON      CLEAR     72  50  45 NW10      30.09R
GRAND PRAIRIE  CLEAR     75  46  35 NW7       30.10R
MESQUITE       CLEAR     70  46  43 NW7       30.08R
LANCASTER      CLEAR     67  54  63 CALM      30.08R
$$

TXZ091>094-102>105-117-120-121-131>134-240200-
NORTH CENTRAL TEXAS

CITY           SKY/WX    TMP DP  RH WIND       PRES   REMARKS
SHRMAN/DENISON CLEAR     65  47  53 N7        30.14R
GAINESVILLE    CLEAR     63  46  54 N5        30.16R
BOWIE          CLEAR     63  48  59 N7        30.17R
BRIDGEPORT     CLEAR     69  45  42 N8        30.17R
DENTON         CLEAR     69  49  48 N12       30.13R
MCKINNEY       CLEAR     70  50  49 N12       30.11R
BONHAM         CLEAR    N/A N/A N/A N9        30.12R
ROCKWALL       CLEAR     71  50  47 N10G16    30.09R
TERRELL        CLEAR     71  45  39 NW6       30.08R
WAXAHACHIE     CLEAR     69  50  51 NW5       30.10R
CLEBURNE       CLEAR     68  52  56 N12       30.12R HAZE
$$

TXZ083>090-098>101-113>116-127>130-139>142-154-155-240200-
WESTERN NORTH TEXAS

CITY           SKY/WX    TMP DP  RH WIND       PRES   REMARKS
WICHITA FALLS  CLEAR     60  47  61 N9        30.19R
WF-KICKAPOO    CLEAR     66  47  50 N7        30.21R
VERNON         CLEAR     61  45  55 N7        30.23R
ABILENE        CLEAR     67  46  47 N9        30.18R
CISCO          CLEAR     70  48  46 N12       30.16R
EASTLAND       CLEAR     69  48  47 N12       30.15R
RANGER         CLEAR     68  50  52 N10       30.15R
MINERAL WELLS  CLEAR     69  48  47 N13       30.13R
STEPHENVILLE   CLEAR     71  47  43 N8        30.14R
COMANCHE       CLEAR     70  51  51 N6        30.12R
BROWNWOOD      CLEAR     72  46  40 N5        30.12R
COLEMAN        CLEAR     69  45  41 N8        30.14R
$$

TXZ143>147-156>162-174-175-240200-
CENTRAL TEXAS

CITY           SKY/WX    TMP DP  RH WIND       PRES   REMARKS
WACO           CLEAR     67  52  58 SE3       30.07R
WACO-TSTC      CLEAR     66  50  55 CALM      30.08R
WACO-MCGREGOR  CLEAR     69  52  54 S5        30.08R
HILLSBORO      CLEAR     67  55  64 CALM      30.08R
CORSICANA      CLOUDY    69  48  47 SW5       30.08
MEXIA          CLEAR     68  47  47 SW5       30.07R
HEARNE         CLEAR     62  56  80 CALM      30.08R
CAMERON        CLEAR     69  49  49 CALM      30.08R
TEMPLE         CLEAR     70  50  49 CALM      30.08R
KILLEEN        CLEAR     70  50  48 S3        30.08R
KILLEEN-SKYLRK CLEAR     68  53  58 CALM      30.09R
FORT HOOD      CLEAR     71  52  49 E3        30.06R
GATESVILLE     CLEAR     68  54  60 CALM      30.10R
HAMILTON       CLEAR     72  49  44 E3        30.11R
LAMPASAS       CLEAR     71  54  56 CALM      30.09R
$$

TXZ095>097-106>112-122>126-135>138-148>153-164>167-240200-
EAST TEXAS

CITY           SKY/WX    TMP DP  RH WIND       PRES   REMARKS
PARIS          CLEAR     68  49  50 N15       30.09R
GILMER         CLEAR     61  50  67 CALM      30.05S
MINEOLA        CLEAR     61  52  72 CALM      30.07R
TYLER          CLEAR     65  48  54 CALM      30.06R
LONGVIEW       CLEAR     63  51  65 CALM      30.05R
MARSHALL       CLEAR     57  52  82 MISG      30.06R
ATHENS         CLOUDY    61  46  59 CALM      30.05R
PALESTINE      CLEAR     69  64  83 CALM      30.08R
JACKSONVILLE   CLEAR     69  46  44 CALM      30.08R
CENTER         CLOUDY    63  56  76 N6        30.05R
NACOGDOCHES    CLEAR     59  54  83 CALM      30.06R
LUFKIN         CLEAR     61  57  87 CALM      30.05R
$$

SUPPLEMENTAL OBSERVATIONS (NWS FORT WORTH AREA)

CITY           SKY/WX    TMP DP  RH WIND       PRES   REMARKS
$$

SUPPLEMENTAL OBSERVATIONS (NWS NORMAN AREA)

CITY           SKY/WX    TMP DP  RH WIND       PRES   REMARKS
GOODLETT         N/A     62  38  41 N10       30.24R
ODELL            N/A     60  46  59 N8        30.24R
CROWELL          N/A     66  42  41 N8        30.23R
KNOX CITY        N/A     65  46  49 NE9       30.22R
SEYMOUR          N/A     62  48  60 N8        30.21R
$$

SUPPLEMENTAL OBSERVATIONS (NWS SAN ANGELO AREA)

CITY           SKY/WX    TMP DP  RH WIND       PRES   REMARKS
WEINERT          N/A     66  46  47 NE8       30.22R
HASKELL          N/A     66  43  42 N12       30.21R
THROCKMORTON     N/A     66  47  49 N7        30.21R
STAMFORD         N/A     68  47  46 N10       30.21R
CLYDE            N/A     65  46  51 N8        30.19R
$$

SUPPLEMENTAL OBSERVATIONS (NWS SHREVEPORT AREA)

CITY           SKY/WX    TMP DP  RH WIND       PRES   REMARKS
$$

SUPPLEMENTAL OBSERVATIONS ARE A COLLECTION OF AUTOMATED INSTRUMENTS
THAT ARE MAINTAINED BY A VARIETY OF FEDERAL AND STATE AGENCIES.
CERTAIN ELEMENTS...SUCH AS HUMIDITY VALUES AND SUSTAINED WIND
SPEEDS...MAY BE APPROXIMATED.





USA.gov is the U.S. government's official web portal to all federal, state and local government web resources and services.